owner,sensor,date,latitude,longitude,vertical_datum,sea_water_temperature,qcFlag 
WAVCIS,ioos:station:WAVCIS:CSI16:1,2009-11-01T00:00:00Z,29.4012,-89.0355,10.0,22.176,11111222 
WAVCIS,ioos:station:WAVCIS:CSI16:1,2009-11-01T00:15:00Z,29.4012,-89.0355,10.0,22.179,11111222 
WAVCIS,ioos:station:WAVCIS:CSI16:1,2009-11-01T00:30:00Z,29.4012,-89.0355,10.0,22.161,11111222 
WAVCIS,ioos:station:WAVCIS:CSI16:1,2009-11-01T00:45:00Z,29.4012,-89.0355,10.0,22.107,11111222 
WAVCIS,ioos:station:WAVCIS:CSI16:1,2009-11-01T01:00:00Z,29.4012,-89.0355,10.0,22.105,11111222 
WAVCIS,ioos:station:WAVCIS:CSI16:1,2009-11-01T01:15:00Z,29.4012,-89.0355,10.0,22.125,11111222 
WAVCIS,ioos:station:WAVCIS:CSI16:1,2009-11-01T01:30:00Z,29.4012,-89.0355,10.0,22.096,11111222 
WAVCIS,ioos:station:WAVCIS:CSI16:1,2009-11-01T01:45:00Z,29.4012,-89.0355,10.0,22.117,11111222 
WAVCIS,ioos:station:WAVCIS:CSI16:1,2009-11-01T02:00:00Z,29.4012,-89.0355,10.0,22.103,11111222 
WAVCIS,ioos:station:WAVCIS:CSI16:1,2009-11-01T02:15:00Z,29.4012,-89.0355,10.0,22.118,11111222 
WAVCIS,ioos:station:WAVCIS:CSI16:1,2009-11-01T02:30:00Z,29.4012,-89.0355,10.0,22.098,11111222 
WAVCIS,ioos:station:WAVCIS:CSI16:1,2009-11-01T02:45:00Z,29.4012,-89.0355,10.0,22.078,11111222 
WAVCIS,ioos:station:WAVCIS:CSI16:1,2009-11-01T03:00:00Z,29.4012,-89.0355,10.0,22.066,11111222 
WAVCIS,ioos:station:WAVCIS:CSI16:1,2009-11-01T03:15:00Z,29.4012,-89.0355,10.0,22.048,11111222 
WAVCIS,ioos:station:WAVCIS:CSI16:1,2009-11-01T03:30:00Z,29.4012,-89.0355,10.0,21.839,11111222 
WAVCIS,ioos:station:WAVCIS:CSI16:1,2009-11-01T03:45:00Z,29.4012,-89.0355,10.0,21.842,11111222 
WAVCIS,ioos:station:WAVCIS:CSI16:1,2009-11-01T04:00:00Z,29.4012,-89.0355,10.0,21.88,11111222 
WAVCIS,ioos:station:WAVCIS:CSI16:1,2009-11-01T04:15:00Z,29.4012,-89.0355,10.0,21.829,11111222 
WAVCIS,ioos:station:WAVCIS:CSI16:1,2009-11-01T04:30:00Z,29.4012,-89.0355,10.0,21.752,11111222 
WAVCIS,ioos:station:WAVCIS:CSI16:1,2009-11-01T04:45:00Z,29.4012,-89.0355,10.0,21.589,11111222 
WAVCIS,ioos:station:WAVCIS:CSI16:1,2009-11-01T05:00:00Z,29.4012,-89.0355,10.0,21.657,11111222 
WAVCIS,ioos:station:WAVCIS:CSI16:1,2009-11-01T05:15:00Z,29.4012,-89.0355,10.0,21.439,11111222 
WAVCIS,ioos:station:WAVCIS:CSI16:1,2009-11-01T05:30:00Z,29.4012,-89.0355,10.0,21.537,11111222 
WAVCIS,ioos:station:WAVCIS:CSI16:1,2009-11-01T05:45:00Z,29.4012,-89.0355,10.0,21.588,11111222 
WAVCIS,ioos:station:WAVCIS:CSI16:1,2009-11-01T06:00:00Z,29.4012,-89.0355,10.0,21.637,11111222 
WAVCIS,ioos:station:WAVCIS:CSI16:1,2009-11-01T06:15:00Z,29.4012,-89.0355,10.0,21.607,11111222 
WAVCIS,ioos:station:WAVCIS:CSI16:1,2009-11-01T06:30:00Z,29.4012,-89.0355,10.0,21.485,11111222 
WAVCIS,ioos:station:WAVCIS:CSI16:1,2009-11-01T06:45:00Z,29.4012,-89.0355,10.0,21.533,11111222 
WAVCIS,ioos:station:WAVCIS:CSI16:1,2009-11-01T07:00:00Z,29.4012,-89.0355,10.0,21.037,11111222 
WAVCIS,ioos:station:WAVCIS:CSI16:1,2009-11-01T07:15:00Z,29.4012,-89.0355,10.0,20.792,11111222 
WAVCIS,ioos:station:WAVCIS:CSI16:1,2009-11-01T07:30:00Z,29.4012,-89.0355,10.0,20.866,11111222 
WAVCIS,ioos:station:WAVCIS:CSI16:1,2009-11-01T07:45:00Z,29.4012,-89.0355,10.0,20.774,11111222 
WAVCIS,ioos:station:WAVCIS:CSI16:1,2009-11-01T08:00:00Z,29.4012,-89.0355,10.0,20.75,11111222 
WAVCIS,ioos:station:WAVCIS:CSI16:1,2009-11-01T08:15:00Z,29.4012,-89.0355,10.0,20.764,11111222 
WAVCIS,ioos:station:WAVCIS:CSI16:1,2009-11-01T08:30:00Z,29.4012,-89.0355,10.0,20.66,11111222 
WAVCIS,ioos:station:WAVCIS:CSI16:1,2009-11-01T08:45:00Z,29.4012,-89.0355,10.0,20.641,11111222 
WAVCIS,ioos:station:WAVCIS:CSI16:1,2009-11-01T09:00:00Z,29.4012,-89.0355,10.0,20.583,11111222 
WAVCIS,ioos:station:WAVCIS:CSI16:1,2009-11-01T09:15:00Z,29.4012,-89.0355,10.0,20.639,11111222 
WAVCIS,ioos:station:WAVCIS:CSI16:1,2009-11-01T09:30:00Z,29.4012,-89.0355,10.0,20.701,11111222 
WAVCIS,ioos:station:WAVCIS:CSI16:1,2009-11-01T09:45:00Z,29.4012,-89.0355,10.0,20.801,11111222 
WAVCIS,ioos:station:WAVCIS:CSI16:1,2009-11-01T10:00:00Z,29.4012,-89.0355,10.0,20.754,11111222 
WAVCIS,ioos:station:WAVCIS:CSI16:1,2009-11-01T10:15:00Z,29.4012,-89.0355,10.0,20.81,11111222 
WAVCIS,ioos:station:WAVCIS:CSI16:1,2009-11-01T10:30:00Z,29.4012,-89.0355,10.0,20.859,11111222 
WAVCIS,ioos:station:WAVCIS:CSI16:1,2009-11-01T10:45:00Z,29.4012,-89.0355,10.0,20.756,11111222 
WAVCIS,ioos:station:WAVCIS:CSI16:1,2009-11-01T11:00:00Z,29.4012,-89.0355,10.0,20.859,11111222 
WAVCIS,ioos:station:WAVCIS:CSI16:1,2009-11-01T11:15:00Z,29.4012,-89.0355,10.0,20.827,11111222 
WAVCIS,ioos:station:WAVCIS:CSI16:1,2009-11-01T11:30:00Z,29.4012,-89.0355,10.0,20.952,11111222 
WAVCIS,ioos:station:WAVCIS:CSI16:1,2009-11-01T11:45:00Z,29.4012,-89.0355,10.0,20.754,11111222 
WAVCIS,ioos:station:WAVCIS:CSI16:1,2009-11-01T12:00:00Z,29.4012,-89.0355,10.0,20.786,11111222 
WAVCIS,ioos:station:WAVCIS:CSI16:1,2009-11-01T12:15:00Z,29.4012,-89.0355,10.0,20.729,11111222 
WAVCIS,ioos:station:WAVCIS:CSI16:1,2009-11-01T12:30:00Z,29.4012,-89.0355,10.0,20.506,11111222 
WAVCIS,ioos:station:WAVCIS:CSI16:1,2009-11-01T12:45:00Z,29.4012,-89.0355,10.0,20.489,11111222 
WAVCIS,ioos:station:WAVCIS:CSI16:1,2009-11-01T13:00:00Z,29.4012,-89.0355,10.0,20.636,11111222 
WAVCIS,ioos:station:WAVCIS:CSI16:1,2009-11-01T13:15:00Z,29.4012,-89.0355,10.0,20.579,11111222 
WAVCIS,ioos:station:WAVCIS:CSI16:1,2009-11-01T13:30:00Z,29.4012,-89.0355,10.0,20.551,11111222 
WAVCIS,ioos:station:WAVCIS:CSI16:1,2009-11-01T13:45:00Z,29.4012,-89.0355,10.0,20.617,11111222 
WAVCIS,ioos:station:WAVCIS:CSI16:1,2009-11-01T14:00:00Z,29.4012,-89.0355,10.0,20.656,11111222 
WAVCIS,ioos:station:WAVCIS:CSI16:1,2009-11-01T14:15:00Z,29.4012,-89.0355,10.0,20.567,11111222 
WAVCIS,ioos:station:WAVCIS:CSI16:1,2009-11-01T14:30:00Z,29.4012,-89.0355,10.0,20.588,11111222 
WAVCIS,ioos:station:WAVCIS:CSI16:1,2009-11-01T14:45:00Z,29.4012,-89.0355,10.0,20.581,11111222 
WAVCIS,ioos:station:WAVCIS:CSI16:1,2009-11-01T15:00:00Z,29.4012,-89.0355,10.0,20.905,11111222 
WAVCIS,ioos:station:WAVCIS:CSI16:1,2009-11-01T15:15:00Z,29.4012,-89.0355,10.0,21.102,11111222 
WAVCIS,ioos:station:WAVCIS:CSI16:1,2009-11-01T15:30:00Z,29.4012,-89.0355,10.0,21.12,11111222 
WAVCIS,ioos:station:WAVCIS:CSI16:1,2009-11-01T15:45:00Z,29.4012,-89.0355,10.0,21.142,11111222 
WAVCIS,ioos:station:WAVCIS:CSI16:1,2009-11-01T16:00:00Z,29.4012,-89.0355,10.0,21.143,11111222 
WAVCIS,ioos:station:WAVCIS:CSI16:1,2009-11-01T16:15:00Z,29.4012,-89.0355,10.0,21.134,11111222 
WAVCIS,ioos:station:WAVCIS:CSI16:1,2009-11-01T16:30:00Z,29.4012,-89.0355,10.0,21.154,11111222 
WAVCIS,ioos:station:WAVCIS:CSI16:1,2009-11-01T16:45:00Z,29.4012,-89.0355,10.0,21.152,11111222 
WAVCIS,ioos:station:WAVCIS:CSI16:1,2009-11-01T17:00:00Z,29.4012,-89.0355,10.0,21.183,11111222 
WAVCIS,ioos:station:WAVCIS:CSI16:1,2009-11-01T17:15:00Z,29.4012,-89.0355,10.0,21.194,11111222 
WAVCIS,ioos:station:WAVCIS:CSI16:1,2009-11-01T17:30:00Z,29.4012,-89.0355,10.0,21.237,11111222 
WAVCIS,ioos:station:WAVCIS:CSI16:1,2009-11-01T17:45:00Z,29.4012,-89.0355,10.0,21.282,11111222 
WAVCIS,ioos:station:WAVCIS:CSI16:1,2009-11-01T18:00:00Z,29.4012,-89.0355,10.0,21.357,11111222 
WAVCIS,ioos:station:WAVCIS:CSI16:1,2009-11-01T18:15:00Z,29.4012,-89.0355,10.0,21.355,11111222 
WAVCIS,ioos:station:WAVCIS:CSI16:1,2009-11-01T18:30:00Z,29.4012,-89.0355,10.0,21.389,11111222 
WAVCIS,ioos:station:WAVCIS:CSI16:1,2009-11-01T18:45:00Z,29.4012,-89.0355,10.0,21.482,11111222 
WAVCIS,ioos:station:WAVCIS:CSI16:1,2009-11-01T19:00:00Z,29.4012,-89.0355,10.0,21.482,11111222 
WAVCIS,ioos:station:WAVCIS:CSI16:1,2009-11-01T19:15:00Z,29.4012,-89.0355,10.0,21.513,11111222 
WAVCIS,ioos:station:WAVCIS:CSI16:1,2009-11-01T19:30:00Z,29.4012,-89.0355,10.0,21.546,11111222 
WAVCIS,ioos:station:WAVCIS:CSI16:1,2009-11-01T19:45:00Z,29.4012,-89.0355,10.0,21.625,11111222 
WAVCIS,ioos:station:WAVCIS:CSI16:1,2009-11-01T20:00:00Z,29.4012,-89.0355,10.0,21.647,11111222 
WAVCIS,ioos:station:WAVCIS:CSI16:1,2009-11-01T20:15:00Z,29.4012,-89.0355,10.0,21.67,11111222 
WAVCIS,ioos:station:WAVCIS:CSI16:1,2009-11-01T20:30:00Z,29.4012,-89.0355,10.0,21.665,11111222 
WAVCIS,ioos:station:WAVCIS:CSI16:1,2009-11-01T20:45:00Z,29.4012,-89.0355,10.0,21.657,11111222 
WAVCIS,ioos:station:WAVCIS:CSI16:1,2009-11-01T21:00:00Z,29.4012,-89.0355,10.0,21.642,11111222 
WAVCIS,ioos:station:WAVCIS:CSI16:1,2009-11-01T21:15:00Z,29.4012,-89.0355,10.0,21.651,11111222 
WAVCIS,ioos:station:WAVCIS:CSI16:1,2009-11-01T21:30:00Z,29.4012,-89.0355,10.0,21.656,11111222 
WAVCIS,ioos:station:WAVCIS:CSI16:1,2009-11-01T21:45:00Z,29.4012,-89.0355,10.0,21.661,11111222 
WAVCIS,ioos:station:WAVCIS:CSI16:1,2009-11-01T22:00:00Z,29.4012,-89.0355,10.0,21.689,11111222 
WAVCIS,ioos:station:WAVCIS:CSI16:1,2009-11-01T22:15:00Z,29.4012,-89.0355,10.0,21.66,11111222 
WAVCIS,ioos:station:WAVCIS:CSI16:1,2009-11-01T22:30:00Z,29.4012,-89.0355,10.0,21.657,11111222 
WAVCIS,ioos:station:WAVCIS:CSI16:1,2009-11-01T22:45:00Z,29.4012,-89.0355,10.0,21.613,11111222 
WAVCIS,ioos:station:WAVCIS:CSI16:1,2009-11-01T23:00:00Z,29.4012,-89.0355,10.0,21.643,11111222 
WAVCIS,ioos:station:WAVCIS:CSI16:1,2009-11-01T23:15:00Z,29.4012,-89.0355,10.0,21.583,11111222 
WAVCIS,ioos:station:WAVCIS:CSI16:1,2009-11-01T23:30:00Z,29.4012,-89.0355,10.0,21.57,11111222 
WAVCIS,ioos:station:WAVCIS:CSI16:1,2009-11-01T23:45:00Z,29.4012,-89.0355,10.0,21.565,11111222 
WAVCIS,ioos:station:WAVCIS:CSI16:1,2009-11-02T00:00:00Z,29.4012,-89.0355,10.0,21.588,11111222 
WAVCIS,ioos:station:WAVCIS:CSI16:1,2009-11-02T00:15:00Z,29.4012,-89.0355,10.0,21.58,11111222 
WAVCIS,ioos:station:WAVCIS:CSI16:1,2009-11-02T00:30:00Z,29.4012,-89.0355,10.0,21.765,11111222 
WAVCIS,ioos:station:WAVCIS:CSI16:1,2009-11-02T00:45:00Z,29.4012,-89.0355,10.0,21.603,11111222 
WAVCIS,ioos:station:WAVCIS:CSI16:1,2009-11-02T01:00:00Z,29.4012,-89.0355,10.0,21.607,11111222 
WAVCIS,ioos:station:WAVCIS:CSI16:1,2009-11-02T01:15:00Z,29.4012,-89.0355,10.0,21.694,11111222 
WAVCIS,ioos:station:WAVCIS:CSI16:1,2009-11-02T01:30:00Z,29.4012,-89.0355,10.0,21.727,11111222 
WAVCIS,ioos:station:WAVCIS:CSI16:1,2009-11-02T01:45:00Z,29.4012,-89.0355,10.0,21.666,11111222 
WAVCIS,ioos:station:WAVCIS:CSI16:1,2009-11-02T02:00:00Z,29.4012,-89.0355,10.0,21.545,11111222 
WAVCIS,ioos:station:WAVCIS:CSI16:1,2009-11-02T02:15:00Z,29.4012,-89.0355,10.0,21.442,11111222 
WAVCIS,ioos:station:WAVCIS:CSI16:1,2009-11-02T02:30:00Z,29.4012,-89.0355,10.0,21.256,11111222 
WAVCIS,ioos:station:WAVCIS:CSI16:1,2009-11-02T02:45:00Z,29.4012,-89.0355,10.0,21.155,11111222 
WAVCIS,ioos:station:WAVCIS:CSI16:1,2009-11-02T03:00:00Z,29.4012,-89.0355,10.0,21.192,11111222 
WAVCIS,ioos:station:WAVCIS:CSI16:1,2009-11-02T03:15:00Z,29.4012,-89.0355,10.0,21.141,11111222 
WAVCIS,ioos:station:WAVCIS:CSI16:1,2009-11-02T03:30:00Z,29.4012,-89.0355,10.0,21.155,11111222 
WAVCIS,ioos:station:WAVCIS:CSI16:1,2009-11-02T03:45:00Z,29.4012,-89.0355,10.0,21.159,11111222 
WAVCIS,ioos:station:WAVCIS:CSI16:1,2009-11-02T04:00:00Z,29.4012,-89.0355,10.0,21.149,11111222 
WAVCIS,ioos:station:WAVCIS:CSI16:1,2009-11-02T04:15:00Z,29.4012,-89.0355,10.0,21.166,11111222 
WAVCIS,ioos:station:WAVCIS:CSI16:1,2009-11-02T04:30:00Z,29.4012,-89.0355,10.0,21.156,11111222 
WAVCIS,ioos:station:WAVCIS:CSI16:1,2009-11-02T04:45:00Z,29.4012,-89.0355,10.0,21.181,11111222 
WAVCIS,ioos:station:WAVCIS:CSI16:1,2009-11-02T05:00:00Z,29.4012,-89.0355,10.0,21.153,11111222 
WAVCIS,ioos:station:WAVCIS:CSI16:1,2009-11-02T05:15:00Z,29.4012,-89.0355,10.0,21.194,11111222 
WAVCIS,ioos:station:WAVCIS:CSI16:1,2009-11-02T05:30:00Z,29.4012,-89.0355,10.0,21.159,11111222 
WAVCIS,ioos:station:WAVCIS:CSI16:1,2009-11-02T05:45:00Z,29.4012,-89.0355,10.0,21.153,11111222 
WAVCIS,ioos:station:WAVCIS:CSI16:1,2009-11-02T06:00:00Z,29.4012,-89.0355,10.0,21.137,11111222 
WAVCIS,ioos:station:WAVCIS:CSI16:1,2009-11-02T06:15:00Z,29.4012,-89.0355,10.0,21.094,11111222 
WAVCIS,ioos:station:WAVCIS:CSI16:1,2009-11-02T06:30:00Z,29.4012,-89.0355,10.0,21.076,11111222 
WAVCIS,ioos:station:WAVCIS:CSI16:1,2009-11-02T06:45:00Z,29.4012,-89.0355,10.0,21.013,11111222 
WAVCIS,ioos:station:WAVCIS:CSI16:1,2009-11-02T07:00:00Z,29.4012,-89.0355,10.0,20.955,11111222 
WAVCIS,ioos:station:WAVCIS:CSI16:1,2009-11-02T07:15:00Z,29.4012,-89.0355,10.0,20.935,11111222 
WAVCIS,ioos:station:WAVCIS:CSI16:1,2009-11-02T07:30:00Z,29.4012,-89.0355,10.0,20.917,11111222 
WAVCIS,ioos:station:WAVCIS:CSI16:1,2009-11-02T07:45:00Z,29.4012,-89.0355,10.0,20.773,11111222 
WAVCIS,ioos:station:WAVCIS:CSI16:1,2009-11-02T08:00:00Z,29.4012,-89.0355,10.0,20.697,11111222 
WAVCIS,ioos:station:WAVCIS:CSI16:1,2009-11-02T08:15:00Z,29.4012,-89.0355,10.0,20.617,11111222 
WAVCIS,ioos:station:WAVCIS:CSI16:1,2009-11-02T08:30:00Z,29.4012,-89.0355,10.0,20.493,11111222 
WAVCIS,ioos:station:WAVCIS:CSI16:1,2009-11-02T08:45:00Z,29.4012,-89.0355,10.0,20.447,11111222 
WAVCIS,ioos:station:WAVCIS:CSI16:1,2009-11-02T09:00:00Z,29.4012,-89.0355,10.0,20.396,11111222 
WAVCIS,ioos:station:WAVCIS:CSI16:1,2009-11-02T09:15:00Z,29.4012,-89.0355,10.0,20.414,11111222 
WAVCIS,ioos:station:WAVCIS:CSI16:1,2009-11-02T09:30:00Z,29.4012,-89.0355,10.0,20.409,11111222 
WAVCIS,ioos:station:WAVCIS:CSI16:1,2009-11-02T09:45:00Z,29.4012,-89.0355,10.0,20.43,11111222 
WAVCIS,ioos:station:WAVCIS:CSI16:1,2009-11-02T10:00:00Z,29.4012,-89.0355,10.0,20.44,11111222 
WAVCIS,ioos:station:WAVCIS:CSI16:1,2009-11-02T10:15:00Z,29.4012,-89.0355,10.0,20.396,11111222 
WAVCIS,ioos:station:WAVCIS:CSI16:1,2009-11-02T10:30:00Z,29.4012,-89.0355,10.0,20.367,11111222 
WAVCIS,ioos:station:WAVCIS:CSI16:1,2009-11-02T10:45:00Z,29.4012,-89.0355,10.0,20.347,11111222 
WAVCIS,ioos:station:WAVCIS:CSI16:1,2009-11-02T11:00:00Z,29.4012,-89.0355,10.0,20.487,11111222 
WAVCIS,ioos:station:WAVCIS:CSI16:1,2009-11-02T11:15:00Z,29.4012,-89.0355,10.0,20.515,11111222 
WAVCIS,ioos:station:WAVCIS:CSI16:1,2009-11-02T11:30:00Z,29.4012,-89.0355,10.0,20.493,11111222 
WAVCIS,ioos:station:WAVCIS:CSI16:1,2009-11-02T11:45:00Z,29.4012,-89.0355,10.0,20.552,11111222 
WAVCIS,ioos:station:WAVCIS:CSI16:1,2009-11-02T12:00:00Z,29.4012,-89.0355,10.0,20.479,11111222 
WAVCIS,ioos:station:WAVCIS:CSI16:1,2009-11-02T12:15:00Z,29.4012,-89.0355,10.0,20.663,11111222 
WAVCIS,ioos:station:WAVCIS:CSI16:1,2009-11-02T12:30:00Z,29.4012,-89.0355,10.0,20.493,11111222 
WAVCIS,ioos:station:WAVCIS:CSI16:1,2009-11-02T12:45:00Z,29.4012,-89.0355,10.0,20.296,11111222 
WAVCIS,ioos:station:WAVCIS:CSI16:1,2009-11-02T13:00:00Z,29.4012,-89.0355,10.0,20.34,11111222 
WAVCIS,ioos:station:WAVCIS:CSI16:1,2009-11-02T13:15:00Z,29.4012,-89.0355,10.0,20.34,11111222 
WAVCIS,ioos:station:WAVCIS:CSI16:1,2009-11-02T13:30:00Z,29.4012,-89.0355,10.0,20.307,11111222 
WAVCIS,ioos:station:WAVCIS:CSI16:1,2009-11-02T13:45:00Z,29.4012,-89.0355,10.0,20.262,11111222 
WAVCIS,ioos:station:WAVCIS:CSI16:1,2009-11-02T14:00:00Z,29.4012,-89.0355,10.0,20.278,11111222 
WAVCIS,ioos:station:WAVCIS:CSI16:1,2009-11-02T14:15:00Z,29.4012,-89.0355,10.0,20.192,11111222 
WAVCIS,ioos:station:WAVCIS:CSI16:1,2009-11-02T14:30:00Z,29.4012,-89.0355,10.0,20.116,11111222 
WAVCIS,ioos:station:WAVCIS:CSI16:1,2009-11-02T14:45:00Z,29.4012,-89.0355,10.0,20.141,11111222 
WAVCIS,ioos:station:WAVCIS:CSI16:1,2009-11-02T15:00:00Z,29.4012,-89.0355,10.0,20.129,11111222 
WAVCIS,ioos:station:WAVCIS:CSI16:1,2009-11-02T15:15:00Z,29.4012,-89.0355,10.0,20.133,11111222 
WAVCIS,ioos:station:WAVCIS:CSI16:1,2009-11-02T15:30:00Z,29.4012,-89.0355,10.0,20.144,11111222 
WAVCIS,ioos:station:WAVCIS:CSI16:1,2009-11-02T15:45:00Z,29.4012,-89.0355,10.0,20.149,11111222 
WAVCIS,ioos:station:WAVCIS:CSI16:1,2009-11-02T16:00:00Z,29.4012,-89.0355,10.0,20.081,11111222 
WAVCIS,ioos:station:WAVCIS:CSI16:1,2009-11-02T16:15:00Z,29.4012,-89.0355,10.0,20.158,11111222 
WAVCIS,ioos:station:WAVCIS:CSI16:1,2009-11-02T16:30:00Z,29.4012,-89.0355,10.0,20.226,11111222 
WAVCIS,ioos:station:WAVCIS:CSI16:1,2009-11-02T16:45:00Z,29.4012,-89.0355,10.0,20.324,11111222 
WAVCIS,ioos:station:WAVCIS:CSI16:1,2009-11-02T17:00:00Z,29.4012,-89.0355,10.0,20.399,11111222 
WAVCIS,ioos:station:WAVCIS:CSI16:1,2009-11-02T17:15:00Z,29.4012,-89.0355,10.0,20.431,11111222 
WAVCIS,ioos:station:WAVCIS:CSI16:1,2009-11-02T17:30:00Z,29.4012,-89.0355,10.0,20.513,11111222 
WAVCIS,ioos:station:WAVCIS:CSI16:1,2009-11-02T17:45:00Z,29.4012,-89.0355,10.0,20.65,11111222 
WAVCIS,ioos:station:WAVCIS:CSI16:1,2009-11-02T18:00:00Z,29.4012,-89.0355,10.0,20.669,11111222 
WAVCIS,ioos:station:WAVCIS:CSI16:1,2009-11-02T18:15:00Z,29.4012,-89.0355,10.0,20.793,11111222 
WAVCIS,ioos:station:WAVCIS:CSI16:1,2009-11-02T18:30:00Z,29.4012,-89.0355,10.0,20.848,11111222 
WAVCIS,ioos:station:WAVCIS:CSI16:1,2009-11-02T18:45:00Z,29.4012,-89.0355,10.0,20.984,11111222 
WAVCIS,ioos:station:WAVCIS:CSI16:1,2009-11-02T19:00:00Z,29.4012,-89.0355,10.0,21.059,11111222 
WAVCIS,ioos:station:WAVCIS:CSI16:1,2009-11-02T19:15:00Z,29.4012,-89.0355,10.0,21.156,11111222 
WAVCIS,ioos:station:WAVCIS:CSI16:1,2009-11-02T19:30:00Z,29.4012,-89.0355,10.0,21.289,11111222 
WAVCIS,ioos:station:WAVCIS:CSI16:1,2009-11-02T19:45:00Z,29.4012,-89.0355,10.0,21.361,11111222 
WAVCIS,ioos:station:WAVCIS:CSI16:1,2009-11-02T20:00:00Z,29.4012,-89.0355,10.0,21.438,11111222 
WAVCIS,ioos:station:WAVCIS:CSI16:1,2009-11-02T20:15:00Z,29.4012,-89.0355,10.0,21.514,11111222 
WAVCIS,ioos:station:WAVCIS:CSI16:1,2009-11-02T20:30:00Z,29.4012,-89.0355,10.0,21.556,11111222 
WAVCIS,ioos:station:WAVCIS:CSI16:1,2009-11-02T20:45:00Z,29.4012,-89.0355,10.0,21.628,11111222 
WAVCIS,ioos:station:WAVCIS:CSI16:1,2009-11-02T21:00:00Z,29.4012,-89.0355,10.0,21.673,11111222 
WAVCIS,ioos:station:WAVCIS:CSI16:1,2009-11-02T21:15:00Z,29.4012,-89.0355,10.0,21.716,11111222 
WAVCIS,ioos:station:WAVCIS:CSI16:1,2009-11-02T21:30:00Z,29.4012,-89.0355,10.0,21.731,11111222 
WAVCIS,ioos:station:WAVCIS:CSI16:1,2009-11-02T21:45:00Z,29.4012,-89.0355,10.0,21.756,11111222 
WAVCIS,ioos:station:WAVCIS:CSI16:1,2009-11-02T22:00:00Z,29.4012,-89.0355,10.0,21.802,11111222 
WAVCIS,ioos:station:WAVCIS:CSI16:1,2009-11-02T22:15:00Z,29.4012,-89.0355,10.0,21.849,11111222 
WAVCIS,ioos:station:WAVCIS:CSI16:1,2009-11-02T22:30:00Z,29.4012,-89.0355,10.0,21.601,11111222 
WAVCIS,ioos:station:WAVCIS:CSI16:1,2009-11-02T22:45:00Z,29.4012,-89.0355,10.0,21.508,11111222 
WAVCIS,ioos:station:WAVCIS:CSI16:1,2009-11-02T23:00:00Z,29.4012,-89.0355,10.0,21.523,11111222 
WAVCIS,ioos:station:WAVCIS:CSI16:1,2009-11-02T23:15:00Z,29.4012,-89.0355,10.0,21.632,11111222 
WAVCIS,ioos:station:WAVCIS:CSI16:1,2009-11-02T23:30:00Z,29.4012,-89.0355,10.0,21.909,11111222 
WAVCIS,ioos:station:WAVCIS:CSI16:1,2009-11-02T23:45:00Z,29.4012,-89.0355,10.0,21.696,11111222 
WAVCIS,ioos:station:WAVCIS:CSI16:1,2009-11-03T00:00:00Z,29.4012,-89.0355,10.0,21.825,11111222 
WAVCIS,ioos:station:WAVCIS:CSI16:1,2009-11-03T00:15:00Z,29.4012,-89.0355,10.0,21.796,11111222 
WAVCIS,ioos:station:WAVCIS:CSI16:1,2009-11-03T00:30:00Z,29.4012,-89.0355,10.0,21.807,11111222 
WAVCIS,ioos:station:WAVCIS:CSI16:1,2009-11-03T00:45:00Z,29.4012,-89.0355,10.0,21.935,11111222 
WAVCIS,ioos:station:WAVCIS:CSI16:1,2009-11-03T01:00:00Z,29.4012,-89.0355,10.0,22.028,11111222 
WAVCIS,ioos:station:WAVCIS:CSI16:1,2009-11-03T01:15:00Z,29.4012,-89.0355,10.0,22.074,11111222 
WAVCIS,ioos:station:WAVCIS:CSI16:1,2009-11-03T01:30:00Z,29.4012,-89.0355,10.0,21.337,11111222 
WAVCIS,ioos:station:WAVCIS:CSI16:1,2009-11-03T01:45:00Z,29.4012,-89.0355,10.0,21.871,11111222 
WAVCIS,ioos:station:WAVCIS:CSI16:1,2009-11-03T02:00:00Z,29.4012,-89.0355,10.0,21.746,11111222 
WAVCIS,ioos:station:WAVCIS:CSI16:1,2009-11-03T02:15:00Z,29.4012,-89.0355,10.0,21.753,11111222 
WAVCIS,ioos:station:WAVCIS:CSI16:1,2009-11-03T02:30:00Z,29.4012,-89.0355,10.0,21.526,11111222 
WAVCIS,ioos:station:WAVCIS:CSI16:1,2009-11-03T02:45:00Z,29.4012,-89.0355,10.0,21.178,11111222 
WAVCIS,ioos:station:WAVCIS:CSI16:1,2009-11-03T03:00:00Z,29.4012,-89.0355,10.0,21.176,11111222 
WAVCIS,ioos:station:WAVCIS:CSI16:1,2009-11-03T03:15:00Z,29.4012,-89.0355,10.0,21.247,11111222 
WAVCIS,ioos:station:WAVCIS:CSI16:1,2009-11-03T03:30:00Z,29.4012,-89.0355,10.0,21.591,11111222 
WAVCIS,ioos:station:WAVCIS:CSI16:1,2009-11-03T03:45:00Z,29.4012,-89.0355,10.0,21.999,11111222 
WAVCIS,ioos:station:WAVCIS:CSI16:1,2009-11-03T04:00:00Z,29.4012,-89.0355,10.0,22.203,11111222 
WAVCIS,ioos:station:WAVCIS:CSI16:1,2009-11-03T04:15:00Z,29.4012,-89.0355,10.0,22.249,11111222 
WAVCIS,ioos:station:WAVCIS:CSI16:1,2009-11-03T04:30:00Z,29.4012,-89.0355,10.0,22.256,11111222 
WAVCIS,ioos:station:WAVCIS:CSI16:1,2009-11-03T04:45:00Z,29.4012,-89.0355,10.0,22.206,11111222 
WAVCIS,ioos:station:WAVCIS:CSI16:1,2009-11-03T05:00:00Z,29.4012,-89.0355,10.0,22.176,11111222 
WAVCIS,ioos:station:WAVCIS:CSI16:1,2009-11-03T05:15:00Z,29.4012,-89.0355,10.0,22.001,11111222 
WAVCIS,ioos:station:WAVCIS:CSI16:1,2009-11-03T05:30:00Z,29.4012,-89.0355,10.0,21.793,11111222 
WAVCIS,ioos:station:WAVCIS:CSI16:1,2009-11-03T05:45:00Z,29.4012,-89.0355,10.0,21.668,11111222 
WAVCIS,ioos:station:WAVCIS:CSI16:1,2009-11-03T06:00:00Z,29.4012,-89.0355,10.0,21.301,11111222 
WAVCIS,ioos:station:WAVCIS:CSI16:1,2009-11-03T06:15:00Z,29.4012,-89.0355,10.0,21.558,11111222 
WAVCIS,ioos:station:WAVCIS:CSI16:1,2009-11-03T06:30:00Z,29.4012,-89.0355,10.0,21.285,11111222 
WAVCIS,ioos:station:WAVCIS:CSI16:1,2009-11-03T06:45:00Z,29.4012,-89.0355,10.0,20.977,11111222 
WAVCIS,ioos:station:WAVCIS:CSI16:1,2009-11-03T07:00:00Z,29.4012,-89.0355,10.0,20.071,11111222 
WAVCIS,ioos:station:WAVCIS:CSI16:1,2009-11-03T07:15:00Z,29.4012,-89.0355,10.0,20.011,11111222 
WAVCIS,ioos:station:WAVCIS:CSI16:1,2009-11-03T07:30:00Z,29.4012,-89.0355,10.0,20.14,11111222 
WAVCIS,ioos:station:WAVCIS:CSI16:1,2009-11-03T07:45:00Z,29.4012,-89.0355,10.0,20.15,11111222 
WAVCIS,ioos:station:WAVCIS:CSI16:1,2009-11-03T08:00:00Z,29.4012,-89.0355,10.0,20.143,11111222 
WAVCIS,ioos:station:WAVCIS:CSI16:1,2009-11-03T08:15:00Z,29.4012,-89.0355,10.0,20.16,11111222 
WAVCIS,ioos:station:WAVCIS:CSI16:1,2009-11-03T08:30:00Z,29.4012,-89.0355,10.0,20.222,11111222 
WAVCIS,ioos:station:WAVCIS:CSI16:1,2009-11-03T08:45:00Z,29.4012,-89.0355,10.0,20.216,11111222 
WAVCIS,ioos:station:WAVCIS:CSI16:1,2009-11-03T09:00:00Z,29.4012,-89.0355,10.0,20.244,11111222 
WAVCIS,ioos:station:WAVCIS:CSI16:1,2009-11-03T09:15:00Z,29.4012,-89.0355,10.0,20.298,11111222 
WAVCIS,ioos:station:WAVCIS:CSI16:1,2009-11-03T09:30:00Z,29.4012,-89.0355,10.0,20.291,11111222 
WAVCIS,ioos:station:WAVCIS:CSI16:1,2009-11-03T09:45:00Z,29.4012,-89.0355,10.0,20.376,11111222 
WAVCIS,ioos:station:WAVCIS:CSI16:1,2009-11-03T10:00:00Z,29.4012,-89.0355,10.0,20.324,11111222 
WAVCIS,ioos:station:WAVCIS:CSI16:1,2009-11-03T10:15:00Z,29.4012,-89.0355,10.0,20.339,11111222 
WAVCIS,ioos:station:WAVCIS:CSI16:1,2009-11-03T10:30:00Z,29.4012,-89.0355,10.0,20.365,11111222 
WAVCIS,ioos:station:WAVCIS:CSI16:1,2009-11-03T10:45:00Z,29.4012,-89.0355,10.0,20.287,11111222 
WAVCIS,ioos:station:WAVCIS:CSI16:1,2009-11-03T11:00:00Z,29.4012,-89.0355,10.0,20.25,11111222 
WAVCIS,ioos:station:WAVCIS:CSI16:1,2009-11-03T11:15:00Z,29.4012,-89.0355,10.0,20.266,11111222 
WAVCIS,ioos:station:WAVCIS:CSI16:1,2009-11-03T11:30:00Z,29.4012,-89.0355,10.0,20.156,11111222 
WAVCIS,ioos:station:WAVCIS:CSI16:1,2009-11-03T11:45:00Z,29.4012,-89.0355,10.0,20.062,11111222 
WAVCIS,ioos:station:WAVCIS:CSI16:1,2009-11-03T12:00:00Z,29.4012,-89.0355,10.0,20.07,11111222 
WAVCIS,ioos:station:WAVCIS:CSI16:1,2009-11-03T12:15:00Z,29.4012,-89.0355,10.0,20.081,11111222 
WAVCIS,ioos:station:WAVCIS:CSI16:1,2009-11-03T12:30:00Z,29.4012,-89.0355,10.0,20.042,11111222 
WAVCIS,ioos:station:WAVCIS:CSI16:1,2009-11-03T12:45:00Z,29.4012,-89.0355,10.0,20.142,11111222 
WAVCIS,ioos:station:WAVCIS:CSI16:1,2009-11-03T13:00:00Z,29.4012,-89.0355,10.0,20.089,11111222 
WAVCIS,ioos:station:WAVCIS:CSI16:1,2009-11-03T13:15:00Z,29.4012,-89.0355,10.0,20.157,11111222 
WAVCIS,ioos:station:WAVCIS:CSI16:1,2009-11-03T13:30:00Z,29.4012,-89.0355,10.0,20.027,11111222 
WAVCIS,ioos:station:WAVCIS:CSI16:1,2009-11-03T13:45:00Z,29.4012,-89.0355,10.0,19.996,11111222 
WAVCIS,ioos:station:WAVCIS:CSI16:1,2009-11-03T14:00:00Z,29.4012,-89.0355,10.0,19.901,11111222 
WAVCIS,ioos:station:WAVCIS:CSI16:1,2009-11-03T14:15:00Z,29.4012,-89.0355,10.0,19.815,11111222 
WAVCIS,ioos:station:WAVCIS:CSI16:1,2009-11-03T14:30:00Z,29.4012,-89.0355,10.0,19.776,11111222 